STARLINK-2091 (47678 NORAD) Tracking and Keplerian Element Data
This shows tracking and keplerian element data for the satellite.
Feedback or suggestion? Click here.
Element | Value |
Catalog | 47678 |
Name | STARLINK-2091 |
Epoch Orbit | 183 |
Epoch Day | 56.91667824 |
Epoch Year | 2021 |
RAAN | 53.2869 |
Inclination | 53.0491 |
Eccentricity | 0.0001242 |
Argument of Perigee | 91.4343 |
Mean Anonmoly | 179.9633 |
Mean Motion | 15.85992536 |
Decay Rate | 0.00148545 |
L1 | 1 47678U 21012BL 21056.91667824 .00148545 00000-0 58362-3 0 9999 |
L2 | 2 47678 53.0491 53.2869 0001242 91.4343 179.9633 15.85992536 1835 |
Live tracking and technical data element details for STARLINK-2091 (NORAD 47678). STARLINK-2091 can be tracked NOW for your location showing map with azimuth and elevation plus other details from your city location.
Track the satellite on the map from your city or location and see movement details for azimuth, elevation, latitude, longitude, range, height, and movement on the map or in text.
IsCatalogInMostPopularTable: catalog: 47678, numindb: 1
Update: records affected: 1
GetName: 47678 STARLINK-2091
Hit Count: updated at: Fri, 26 Feb 2021 09:18:15 GMT